Погода в Вади-ад-Давасире

Саудовская Аравия     20°28′00″N   44°47′46″E
темп.,
°C
ветер,
м/с
пор.,
м/с
влажн.,
%
обл.,
%
осадки,
мм/ч
давл.,
гПа
погр.,
м
15 августа, пн
пн1500:00+36ссв3513100 0.0 99971
03:00+34всв3316100 0.0 99936
06:00+33всв3620100 0.0 1001117
09:00+36вюв4521100 0.0 1002703
12:00+39св131582 0.0 10022544
15:00+41сз251091 0.0 9994680
18:00+41с35983 0.0 9992538
21:00+38в33105 0.0 100025
16 августа, вт
вт1600:00+35ююв331152 0.0 100128
03:00+34ююз331391 0.0 100014
06:00+33юв331324 0.0 100113
09:00+38юв341010 0.0 1002621
12:00+41вюв1285 0.0 10013432
15:00+42св328100 0.0 9984826
18:00+41с23880 0.0 9992283
21:00+39ссв3310100 0.0 100129
17 августа, ср
ср1700:00+36вюв331268 0.0 100130
03:00+34в221248 0.0 100011
06:00+33в2213100 0.0 100112
09:00+37всв121026 0.0 1002501
12:00+41с248100 0.0 10002826
15:00+42св46747 0.0 9974486
18:00+42всв357100 0.0 9972256
21:00+38ссв581059 0.0 998145
18 августа, чт
чт1800:00+36ссв3411100 0.0 99836
03:00+34с4512100 0.0 99768
06:00+32с2214100 0.0 99915
09:00+36сз221159 0.0 1000493
12:00+40ссз12945 0.0 9981805
15:00+42в34832 0.0 9954197
18:00+40св881596 0.0 9961569
21:00+38св341999 0.1 999430
19 августа, пт
пт1900:00+36юв5821100 0.1 999558
03:00+35ююв582387 0.3 998181
06:00+34з462548 0.1 1000153
09:00+38з67199 0.1 10011103
12:00+41зсз46154 0.0 10003759
15:00+42ссв15115 0.0 9984544
18:00+42ссв4510100 0.0 9982777
21:00+40всв2211100 0.0 99916